Location: Jastrz?bniki
(50.3667°N, 20.3833°E)
Time: 11:09:34
(UTC+00:00)

COSMOS 2441 - Pass Details

Date: 05 August 2024
Orbit: 705 x 729 km, 98.2° (Epoch: 09 September)

Event Time Altitude Azimuth Distance (km) Brightness Sun altitude
Rises 01:06:04 0° 13° (NNE) 3,166 9.0 -15.9°
Reaches altitude 10° 01:08:21 10° 13° (NNE) 2,239 8.0 -15.7°
Maximum altitude 01:13:17 84° 287° (WNW) 738 4.4 -15.2°
Enters shadow 01:16:27 22° 200° (SSW) 1,544 5.5 -14.9°
